Gainesville, GA

8:28 PM EDT on May 26, 2018 (GMT -0400)
Gilmer Memorial

Weather History for KGVL - April, 2013

Change the Weather History Date:

Thursday, April 18, 2013

  Actual Average Record
Temperature  
Mean Temperature 70 °F 61 °F  
Max Temperature 79 °F 72 °F 89 °F (1955)
Min Temperature 61 °F 50 °F 34 °F (1947)
Degree Days  
Heating Degree Days 0 5  
Month to date heating degree days 90 127  
Since 1 July heating degree days 116 2979  
Cooling Degree Days 5 1  
Month to date cooling degree days 31 16  
Year to date cooling degree days 31 21  
Growing Degree Days 19 (Base 50)    
Moisture  
Dew Point 59 °F    
Average Humidity 71    
Maximum Humidity 97    
Minimum Humidity 45    
Precipitation  
Precipitation 0.00 in 0.11 in 2.41 in (1969)
Month to date precipitation 2.65 2.05  
Year to date precipitation 3.36 17.37  
Snow  
Snow 0.00 in - - ()
Month to date snowfall 0.0  
Since 1 July snowfall 0.0  
Snow Depth 0.00 in    
Sea Level Pressure  
Sea Level Pressure 30.06 in    
Wind  
Wind Speed 7 mph (SE)    
Max Wind Speed 15 mph    
Max Gust Speed 22 mph    
Visibility 8 miles    
Events      
T = Trace of Precipitation, MM = Missing Value Source: NWS Daily Summary

Daily Weather History Graph

Daily Weather History Graph

Search for Another Location

Airport or City:

Astronomy

Apr. 18, 2013 Rise Set
Actual Time 7:00 AM EDT 8:09 PM EDT
Civil Twilight 6:34 AM EDT 8:35 PM EDT
Nautical Twilight 6:03 AM EDT 9:06 PM EDT
Astronomical Twilight 5:31 AM EDT 9:38 PM EDT
Moon 1:13 PM EDT (4/18) 2:20 AM EDT (4/18)
Length of Visible Light 14h 01m
Length of Day
13h 09m
First Quarter, 51% of the Moon is Illuminated
Apr 18
First Quarter
Apr 25
Full
May 2
Last Quarter
May 9
New
May 18
First Quarter

Hourly Weather History & Observations

Time (EDT) Temp. Dew Point Humidity Pressure Visibility Wind Dir Wind Speed Gust Speed Precip Events Conditions
12:53 AM 64.9 °F 60.1 °F 84% 30.07 in 9.0 mi Calm Calm - N/A   Clear
1:53 AM 64.0 °F 59.0 °F 84% 30.08 in 10.0 mi East 6.9 mph - N/A   Clear
2:53 AM 62.1 °F 59.0 °F 90% 30.08 in 9.0 mi East 6.9 mph - N/A   Clear
3:53 AM 62.1 °F 60.1 °F 93% 30.09 in 7.0 mi East 6.9 mph - N/A   Mostly Cloudy
4:53 AM 62.1 °F 60.1 °F 93% 30.09 in 6.0 mi ESE 5.8 mph - N/A   Mostly Cloudy
5:53 AM 61.0 °F 59.0 °F 93% 30.09 in 5.0 mi East 5.8 mph - N/A   Mostly Cloudy
6:49 AM 60.8 °F 59.0 °F 94% 30.13 in 4.0 mi East 5.8 mph - N/A   Mostly Cloudy
6:53 AM 61.0 °F 59.0 °F 93% 30.10 in 4.0 mi East 6.9 mph - N/A   Mostly Cloudy
7:41 AM 60.8 °F 59.0 °F 94% 30.14 in 3.0 mi East 5.8 mph - N/A   Mostly Cloudy
7:53 AM 61.0 °F 59.0 °F 93% 30.11 in 2.5 mi East 6.9 mph - N/A   Mostly Cloudy
8:16 AM 62.6 °F 60.8 °F 94% 30.14 in 3.0 mi East 6.9 mph - N/A   Overcast
8:53 AM 62.1 °F 60.1 °F 93% 30.11 in 5.0 mi ESE 6.9 mph - N/A   Overcast
9:15 AM 62.6 °F 60.8 °F 94% 30.14 in 6.0 mi East 6.9 mph - N/A   Mostly Cloudy
9:34 AM 64.4 °F 60.8 °F 88% 30.13 in 8.0 mi Variable 6.9 mph - N/A   Mostly Cloudy
9:53 AM 66.0 °F 59.0 °F 78% 30.10 in 10.0 mi SE 6.9 mph - N/A   Scattered Clouds
10:53 AM 70.0 °F 57.9 °F 65% 30.11 in 10.0 mi SE 6.9 mph - N/A   Partly Cloudy
11:53 AM 73.0 °F 57.0 °F 57% 30.10 in 10.0 mi Variable 5.8 mph - N/A   Partly Cloudy
12:53 PM 73.0 °F 57.9 °F 59% 30.08 in 10.0 mi SE 10.4 mph - N/A   Mostly Cloudy
1:53 PM 73.9 °F 57.9 °F 57% 30.06 in 10.0 mi SE 10.4 mph 17.3 mph N/A   Mostly Cloudy
2:53 PM 75.0 °F 57.0 °F 53% 30.04 in 10.0 mi South 9.2 mph 17.3 mph N/A   Mostly Cloudy
3:53 PM 75.9 °F 57.0 °F 52% 30.01 in 10.0 mi South 9.2 mph - N/A   Overcast
4:53 PM 77.0 °F 57.0 °F 50% 29.98 in 10.0 mi SE 12.7 mph 17.3 mph N/A   Mostly Cloudy
5:53 PM 78.1 °F 55.9 °F 46% 29.96 in 10.0 mi South 9.2 mph 17.3 mph N/A   Partly Cloudy
6:53 PM 77.0 °F 57.0 °F 50% 29.95 in 10.0 mi SSE 8.1 mph - N/A   Scattered Clouds
7:53 PM 73.9 °F 57.0 °F 55% 29.96 in 10.0 mi SE 3.5 mph - N/A   Scattered Clouds
8:53 PM 72.0 °F 57.9 °F 61% 29.95 in 10.0 mi SE 6.9 mph - N/A   Clear
9:53 PM 71.1 °F 59.0 °F 66% 29.96 in 10.0 mi SSE 4.6 mph - N/A   Clear
10:53 PM 69.1 °F 60.1 °F 73% 29.94 in 10.0 mi SSE 6.9 mph - N/A   Clear
11:53 PM 68.0 °F 60.1 °F 76% 29.94 in 10.0 mi SSE 6.9 mph - N/A   Scattered Clouds